Regional Weather Roundup
Issued by NWS Sterling, VA

Home | Current Version | Previous Version | Graphics & Text | Print | Product List | Glossary On
Versions: 1 2 3 4 5 6 7 8 9 10 11 12 13 14 15 16 17 18 19 20 21 22 23 24 25 26 27 28 29 30 31 32 33 34 35 36 37 38 39 40 41 42 43 44 45 46 47 48 49 50
000
ASUS41 KLWX 011910
RWRLWX

REGIONAL WEATHER ROUNDUP
NATIONAL WEATHER SERVICE BALTIMORE MD/WASHINGTON DC
300 PM EDT FRI AUG 01 2014

Note: "FAIR" indicates few or no clouds below 12,000 feet
with no significant weather and/or obstructions to visibility.
 TC=TEMPERATURE CELSIUS

 * =Non NWS site. Station does not report precipitation (e.g. rain,
    snow, etc.), thunder, or fog.

DCZ001-MDZ009-015-VAZ040>042-051-053>054-012000-
WASHINGTON METRO
  /KDAA//-FT BELVOIR

CITY           SKY/WX    TMP DP  RH WIND       PRES   REMARKS
WASHINGTON NAT LGT RAIN  78  63  59 CALM      30.18F
DULLES         CLOUDY    75  65  70 SW5       30.19F
ANDREWS AFB    CLOUDY    77  64  65 VRB1      30.18F
QUANTICO       LGT RAIN  76  65  68 E3        30.19F
COLLEGE PARK*  CLOUDY    79  61  53 CALM      30.17F
LEESBURG*      CLOUDY    77  68  73 W5        30.21S
GAITHERSBURG*  CLOUDY    75  63  64 SW6       30.23S

$$

MDZ006>007-011-014-012000-
BALTIMORE METRO

CITY           SKY/WX    TMP DP  RH WIND       PRES   REMARKS
BWI AIRPORT    CLOUDY    80  59  48 SW8       30.17F
MD SCIENCE CTR   N/A     81  63  54 MISG      30.17F
MARTIN STATE   CLOUDY    82  66  57 S9        30.18F
ANNAPOLIS      CLOUDY    79  64  60 S5        30.17F
FORT MEADE*    CLOUDY    77  61  57 S6        30.20F

$$

MDZ012-015-019>023-012000-
MARYLAND EASTERN SHORE

CITY           SKY/WX    TMP DP  RH WIND       PRES   REMARKS
OCEAN CITY     CLOUDY    75  69  81 E5        30.19F
SALISBURY      CLOUDY    78  66  66 SE7       30.19F
BAY BRIDGE AP*   N/A     79  64  61 W5        30.18S
CAMBRIDGE*     CLOUDY    79  68  69 SE6       30.18S

$$

MDZ017>025-012000-
SOUTHERN MARYLAND

CITY           SKY/WX    TMP DP  RH WIND       PRES   REMARKS
PATUXENT RIVER LGT RAIN  75  68  78 E7        30.18F
ST INIGOES     CLOUDY    75  68  78 NE6       30.18S
LEONARDTOWN*   CLOUDY    73  68  83 CALM      30.21R

$$

MDZ003>005-012000-
NORTH CENTRAL MARYLAND

CITY           SKY/WX    TMP DP  RH WIND       PRES   REMARKS
FREDERICK*     PTSUNNY   79  66  65 SW9       30.20F
HAGERSTOWN APT CLOUDY    76  62  62 S13       30.18F
WESTMINSTER*   CLOUDY    77  68  73 SW9       30.19F

$$

MDZ501>502-012000-
WESTERN MARYLAND

CITY           SKY/WX    TMP DP  RH WIND       PRES   REMARKS
OAKLAND*       PTSUNNY   68  63  83 SE13      30.23F
CUMBERLAND*    PTSUNNY   81  61  50 SE8       30.20F

$$

VAZ025>031-012000-
SHENANDOAH VALLEY

CITY           SKY/WX    TMP DP  RH WIND       PRES   REMARKS
WINCHESTER*    CLOUDY    70  64  83 S3        30.20F
STAUNTON*      CLOUDY    72  63  73 CALM      30.22F

$$

WVZ021-048>050-054>055-012000-
EASTERN WEST VIRGINIA PANHANDLE

CITY           SKY/WX    TMP DP  RH WIND       PRES   REMARKS
MARTINSBURG    CLOUDY    74  61  63 S7        30.19F
PETERSBURG*    CLOUDY    71  60  68 CALM      30.19F

$$

VAZ036>039-050-012000-
CENTRAL FOOTHILLS

CITY           SKY/WX    TMP DP  RH WIND       PRES   REMARKS
CHARLOTTESVILL CLOUDY    72  64  76 CALM      30.19F
ORANGE*        CLOUDY    72  64  78 N3        30.20F

$$

VAZ055>057-012000-
NORTH AND CENTRAL PIEDMONT

CITY           SKY/WX    TMP DP  RH WIND       PRES   REMARKS
FREDERICKSBRG* CLOUDY    76  67  73 E3        30.17F
STAFFORD*      DRIZZLE   74  74  99 N3        30.22F

$$

NCZ024-NYZ072-PAZ021-071-VAZ022-071-012000-
OTHER REGIONAL OBSERVATIONS

CITY           SKY/WX    TMP DP  RH WIND       PRES   REMARKS
NEW YORK CITY  CLOUDY    78  67  68 S8        30.22R
PHILADELPHIA   LGT RAIN  78  69  73 S12       30.18S
PITTSBURGH     MOSUNNY   82  58  43 VRB5      30.14F
ROANOKE        CLOUDY    72  62  71 NE3       30.20F
RICHMOND       LGT RAIN  75  70  84 NE5       30.18F
RALEIGH        RAIN      70  63  78 NE9       30.10F FOG

$$

ANZ530>537-012000-
MARINE OBSERVATIONS

STATION/POSITION TIME  TEMP    WIND        PRES
                       AIR SEA DIR/SP/G
                 (UTC) (F)     (DEG/KT/KT) (MB)
THOMAS PT LIGHT  1900   75 78  220/  3/  3 1022.3F
BALT KEY BRIDGE  1900          220/  4/  6 1021.5F
COVE POINT       1900   74      60/  4/  5 1022.0S
LEWISETTA        1900   75 78  100/  9/ 10 1022.1R
SOLOMONS ISLAND  1900      80                N/A
PINEY POINT      1900           90/  5/  7   N/A

$$




USA.gov is the U.S. government's official web portal to all federal, state and local government web resources and services.